| time (UTC) | temp C | wind direction | speed KPH | gust KPH | rain 1hr cm | rain 24hr cm | rain mn cm | humidity % | barometer mb |
| 20260906101812 | 19 | 22 | 0.0 | 0.0 | 0.00 | 0.00 | 0.00 | 96 | 1017.9 |
| 20260906100811 | 19 | 22 | 0.0 | 0.0 | 0.00 | 0.00 | 0.00 | 95 | 1018.0 |
| 20260906095810 | 19 | 22 | 0.0 | 0.0 | 0.00 | 0.00 | 0.00 | 96 | 1018.0 |
| 20260906094810 | 19 | 22 | 0.0 | 0.0 | 0.00 | 0.00 | 0.00 | 96 | 1018.1 |
| 20260906093827 | 19 | 22 | 0.0 | 0.0 | 0.00 | 0.00 | 0.00 | 96 | 1018.0 |
| 20260906092911 | 19 | 22 | 0.0 | 0.0 | 0.00 | 0.00 | 0.00 | 95 | 1018.0 |
| 20260906091011 | 19 | 22 | 0.0 | 0.0 | 0.00 | 0.00 | 0.00 | 96 | 1017.9 |
| 20260906090009 | 19 | 22 | 0.0 | 0.0 | 0.00 | 0.00 | 0.00 | 95 | 1017.7 |
| 20260906085012 | 19 | 22 | 0.0 | 0.0 | 0.00 | 0.00 | 0.00 | 95 | 1017.7 |
| 20260906084011 | 19 | 22 | 0.0 | 0.0 | 0.00 | 0.00 | 0.00 | 95 | 1017.7 |
| 20260906083012 | 19 | 22 | 0.0 | 0.0 | 0.00 | 0.00 | 0.00 | 95 | 1017.6 |
| 20260906082028 | 19 | 22 | 0.0 | 0.0 | 0.00 | 0.00 | 0.00 | 95 | 1017.8 |
| 20260906081110 | 19 | 22 | 0.0 | 0.0 | 0.00 | 0.00 | 0.00 | 95 | 1017.9 |
| 20260906080209 | 19 | 22 | 0.0 | 0.0 | 0.00 | 0.00 | 0.00 | 95 | 1017.7 |
| 20260906075210 | 19 | 22 | 0.0 | 0.0 | 0.00 | 0.00 | 0.00 | 95 | 1017.7 |
| 20260906074210 | 19 | 22 | 0.0 | 0.0 | 0.00 | 0.03 | 0.00 | 94 | 1017.5 |
| 20260906073226 | 19 | 25 | 0.0 | 0.0 | 0.00 | 0.03 | 0.00 | 94 | 1017.7 |
| 20260906072311 | 20 | 112 | 0.0 | 1.6 | 0.00 | 0.03 | 0.00 | 94 | 1017.7 |
| 20260906071309 | 20 | 247 | 0.0 | 0.0 | 0.00 | 0.03 | 0.00 | 93 | 1017.7 |
| 20260906071213 | 20 | 247 | 0.0 | 0.0 | 0.00 | 0.03 | 0.00 | 94 | 1017.9 |
| 20260906070209 | 20 | 247 | 0.0 | 0.0 | 0.00 | 0.03 | 0.00 | 94 | 1017.9 |
| 20260906065211 | 20 | 247 | 0.0 | 0.0 | 0.00 | 0.03 | 0.00 | 94 | 1017.9 |
| 20260906064309 | 20 | 247 | 0.0 | 0.0 | 0.00 | 0.03 | 0.00 | 93 | 1017.9 |
| 20260906064209 | 20 | 247 | 0.0 | 0.0 | 0.00 | 0.03 | 0.00 | 92 | 1017.9 |
| 20260906063213 | 20 | 247 | 0.0 | 0.0 | 0.00 | 0.03 | 0.00 | 92 | 1017.8 |
| 20260906063108 | 20 | 247 | 0.0 | 0.0 | 0.00 | 0.03 | 0.00 | 93 | 1017.7 |
| 20260906060310 | 20 | 203 | 0.0 | 0.0 | 0.00 | 0.03 | 0.00 | 93 | 1017.9 |
| 20260906055409 | 20 | 270 | 0.0 | 0.0 | 0.00 | 0.03 | 0.00 | 93 | 1018.0 |
| 20260906054411 | 20 | 270 | 0.0 | 0.0 | 0.00 | 0.03 | 0.00 | 92 | 1018.2 |
| 20260906053410 | 20 | 270 | 0.0 | 0.0 | 0.00 | 0.03 | 0.00 | 92 | 1018.5 |
| 20260906050511 | 20 | 270 | 0.0 | 0.0 | 0.00 | 0.03 | 0.00 | 91 | 1018.7 |
| 20260906045509 | 20 | 270 | 0.0 | 0.0 | 0.00 | 0.03 | 0.00 | 91 | 1018.7 |
| 20260906044510 | 20 | 270 | 0.0 | 0.0 | 0.00 | 0.03 | 0.00 | 90 | 1018.7 |
| 20260906043512 | 20 | 360 | 0.0 | 1.6 | 0.00 | 0.03 | 0.00 | 89 | 1018.7 |
| 20260906042510 | 20 | 360 | 0.0 | 0.0 | 0.00 | 0.03 | 0.00 | 90 | 1018.6 |
| 20260906041512 | 20 | 360 | 0.0 | 0.0 | 0.00 | 0.03 | 0.00 | 89 | 1018.3 |
| 20260906040510 | 20 | 360 | 0.0 | 0.0 | 0.00 | 0.03 | 0.00 | 88 | 1018.6 |
| 20260906035609 | 20 | 360 | 0.0 | 0.0 | 0.00 | 0.03 | 0.03 | 89 | 1018.7 |
| 20260906034706 | 20 | 360 | 0.0 | 0.0 | 0.00 | 0.03 | 0.03 | 88 | 1018.5 |
| 20260906034622 | 20 | 360 | 0.0 | 0.0 | 0.00 | 0.03 | 0.03 | 88 | 1018.6 |
| 20260906033708 | 21 | 360 | 0.0 | 0.0 | 0.00 | 0.03 | 0.03 | 88 | 1018.8 |
| 20260906032806 | 21 | 360 | 0.0 | 0.0 | 0.00 | 0.03 | 0.03 | 88 | 1018.8 |
| 20260906031805 | 21 | 360 | 0.0 | 0.0 | 0.00 | 0.03 | 0.03 | 87 | 1018.9 |
| 20260906030808 | 21 | 360 | 0.0 | 0.0 | 0.00 | 0.03 | 0.03 | 86 | 1018.9 |
| 20260906025808 | 21 | 360 | 0.0 | 0.0 | 0.00 | 0.03 | 0.03 | 85 | 1018.8 |
| 20260906024808 | 21 | 360 | 0.0 | 0.0 | 0.00 | 0.03 | 0.03 | 85 | 1018.8 |
| 20260906022908 | 21 | 360 | 0.0 | 0.0 | 0.00 | 0.03 | 0.03 | 84 | 1018.6 |
| 20260906021907 | 21 | 360 | 0.0 | 0.0 | 0.00 | 0.03 | 0.03 | 84 | 1018.5 |
| 20260906020908 | 21 | 360 | 0.0 | 0.0 | 0.00 | 0.03 | 0.03 | 82 | 1018.5 |
| 20260906020007 | 21 | 360 | 0.0 | 0.0 | 0.00 | 0.03 | 0.03 | 83 | 1018.5 |
| 20260906015009 | 21 | 360 | 0.0 | 0.0 | 0.00 | 0.03 | 0.03 | 82 | 1018.3 |
| 20260906014006 | 21 | 360 | 0.0 | 0.0 | 0.00 | 0.03 | 0.03 | 80 | 1018.1 |
| 20260906013007 | 22 | 360 | 0.0 | 0.0 | 0.00 | 0.03 | 0.03 | 80 | 1018.0 |
| 20260906012021 | 22 | 360 | 0.0 | 0.0 | 0.00 | 0.03 | 0.03 | 79 | 1017.7 |
| 20260906005909 | 22 | 360 | 0.0 | 0.0 | 0.00 | 0.03 | 0.03 | 78 | 1018.0 |
| 20260906005006 | 22 | 360 | 0.0 | 0.0 | 0.00 | 0.03 | 0.03 | 77 | 1017.8 |
| 20260906003106 | 22 | 360 | 0.0 | 0.0 | 0.00 | 0.03 | 0.03 | 77 | 1017.5 |
| 20260906002108 | 22 | 360 | 0.0 | 0.0 | 0.00 | 0.03 | 0.03 | 76 | 1017.5 |
| 20260906001108 | 23 | 360 | 0.0 | 0.0 | 0.00 | 0.03 | 0.03 | 76 | 1017.7 |
| 20260906000108 | 23 | 360 | 0.0 | 0.0 | 0.00 | 0.03 | 0.03 | 74 | 1017.7 |
| 20260905235108 | 23 | 360 | 0.0 | 0.0 | 0.00 | 0.03 | 0.03 | 74 | 1017.6 |
| 20260905234108 | 23 | 360 | 0.0 | 0.0 | 0.00 | 0.03 | 0.03 | 74 | 1017.4 |
| 20260905233122 | 23 | 112 | 0.0 | 1.6 | 0.00 | 0.03 | 0.03 | 74 | 1017.4 |
| 20260905231207 | 24 | 180 | 3.2 | 6.4 | 0.00 | 0.03 | 0.03 | 73 | 1017.3 |
| 20260905225306 | 25 | 112 | 1.6 | 1.6 | 0.00 | 0.03 | 0.03 | 72 | 1017.4 |
| 20260905224307 | 25 | 23 | 0.0 | 0.0 | 0.00 | 0.03 | 0.03 | 72 | 1017.4 |
| 20260905223323 | 25 | 22 | 0.0 | 0.0 | 0.00 | 0.03 | 0.03 | 71 | 1017.4 |
| 20260905223206 | 25 | 22 | 0.0 | 1.6 | 0.00 | 0.03 | 0.03 | 70 | 1017.4 |
| 20260905221305 | 25 | 180 | 0.0 | 0.0 | 0.00 | 0.03 | 0.03 | 69 | 1017.3 |
| 20260905220324 | 25 | 180 | 0.0 | 0.0 | 0.00 | 0.03 | 0.03 | 69 | 1017.4 |
| 20260905215407 | 26 | 180 | 0.0 | 0.0 | 0.00 | 0.03 | 0.03 | 69 | 1017.6 |
| 20260905213524 | 26 | 180 | 0.0 | 0.0 | 0.00 | 0.03 | 0.03 | 69 | 1017.5 |
| 20260905212606 | 26 | 180 | 0.0 | 0.0 | 0.00 | 0.03 | 0.03 | 68 | 1017.4 |
| 20260905210607 | 26 | 112 | 0.0 | 0.0 | 0.00 | 0.03 | 0.03 | 68 | 1017.5 |
| 20260905205705 | 26 | 112 | 3.2 | 6.4 | 0.00 | 0.03 | 0.03 | 67 | 1017.6 |
| 20260905204706 | 27 | 138 | 3.2 | 6.4 | 0.00 | 0.03 | 0.03 | 68 | 1017.9 |
| 20260905203705 | 27 | 143 | 6.4 | 12.9 | 0.00 | 0.03 | 0.03 | 67 | 1018.1 |
| 20260905202706 | 27 | 22 | 1.6 | 1.6 | 0.00 | 0.03 | 0.03 | 66 | 1018.3 |
| 20260905201804 | 28 | 22 | 0.0 | 0.0 | 0.00 | 0.03 | 0.03 | 67 | 1018.5 |
| 20260905200806 | 29 | 112 | 1.6 | 4.8 | 0.00 | 0.03 | 0.03 | 67 | 1018.4 |
| 20260905195807 | 29 | 180 | 0.0 | 0.0 | 0.00 | 0.03 | 0.03 | 66 | 1018.3 |
| 20260905194806 | 29 | 180 | 0.0 | 0.0 | 0.00 | 0.03 | 0.03 | 66 | 1018.1 |
| 20260905193808 | 29 | 180 | 3.2 | 3.2 | 0.00 | 0.03 | 0.03 | 66 | 1018.1 |
| 20260905192822 | 28 | 22 | 0.0 | 1.6 | 0.00 | 0.03 | 0.03 | 65 | 1017.9 |
| 20260905191809 | 28 | 22 | 0.0 | 1.6 | 0.00 | 0.03 | 0.03 | 65 | 1018.4 |
| 20260905184909 | 30 | 24 | 0.0 | 3.2 | 0.00 | 0.03 | 0.03 | 64 | 1019.0 |
| 20260905184006 | 30 | 180 | 0.0 | 0.0 | 0.00 | 0.03 | 0.03 | 65 | 1018.3 |
| 20260905183006 | 32 | 180 | 0.0 | 1.6 | 0.00 | 0.03 | 0.03 | 66 | 1018.0 |
| 20260905182105 | 34 | 22 | 0.0 | 0.0 | 0.00 | 0.03 | 0.03 | 67 | 1018.1 |
| 20260905181107 | 36 | 180 | 0.0 | 0.0 | 0.00 | 0.03 | 0.03 | 69 | 1018.0 |
| 20260905180108 | 35 | 23 | 1.6 | 4.8 | 0.00 | 0.03 | 0.03 | 70 | 1018.4 |
| 20260905175206 | 35 | 67 | 1.6 | 4.8 | 0.00 | 0.03 | 0.03 | 71 | 1018.5 |
| 20260905174207 | 35 | 82 | 1.6 | 6.4 | 0.00 | 0.03 | 0.03 | 72 | 1018.7 |
| 20260905173305 | 35 | 45 | 0.0 | 3.2 | 0.00 | 0.03 | 0.03 | 72 | 1018.7 |
| 20260905171404 | 33 | 71 | 1.6 | 3.2 | 0.00 | 0.03 | 0.03 | 75 | 1018.9 |
| 20260905170407 | 33 | 50 | 0.0 | 6.4 | 0.00 | 0.03 | 0.03 | 77 | 1019.1 |
| 20260905165504 | 33 | 54 | 0.0 | 3.2 | 0.00 | 0.03 | 0.03 | 77 | 1019.1 |
| 20260905164505 | 33 | 174 | 1.6 | 3.2 | 0.00 | 0.03 | 0.03 | 78 | 1019.5 |
| 20260905163508 | 32 | 50 | 1.6 | 3.2 | 0.00 | 0.03 | 0.03 | 80 | 1019.5 |
| 20260905162523 | 32 | 90 | 3.2 | 4.8 | 0.00 | 0.03 | 0.03 | 82 | 1019.6 |
| 20260905160606 | 32 | 118 | 0.0 | 1.6 | 0.00 | 0.03 | 0.03 | 84 | 1019.8 |
| 20260905155705 | 32 | 247 | 0.0 | 1.6 | 0.00 | 0.03 | 0.03 | 86 | 1019.9 |
| 20260905154706 | 31 | 90 | 0.0 | 1.6 | 0.00 | 0.03 | 0.03 | 87 | 1020.0 |
| 20260905153720 | 30 | 85 | 1.6 | 4.8 | 0.00 | 0.03 | 0.03 | 89 | 1020.1 |
| 20260905152706 | 28 | 180 | 1.6 | 1.6 | 0.00 | 0.03 | 0.03 | 90 | 1020.3 |
| 20260905151706 | 28 | 180 | 3.2 | 4.8 | 0.00 | 0.03 | 0.03 | 91 | 1020.3 |
| 20260905150705 | 27 | 180 | 1.6 | 3.2 | 0.00 | 0.03 | 0.03 | 92 | 1020.2 |
| 20260905145705 | 26 | 180 | 0.0 | 3.2 | 0.00 | 0.03 | 0.03 | 92 | 1020.4 |
| 20260905145622 | 26 | 180 | 3.2 | 4.8 | 0.00 | 0.03 | 0.03 | 91 | 1020.3 |
| 20260905144605 | 26 | 180 | 4.8 | 6.4 | 0.00 | 0.03 | 0.03 | 92 | 1020.3 |
| 20260905143605 | 26 | 180 | 0.0 | 1.6 | 0.00 | 0.03 | 0.03 | 93 | 1020.4 |
| 20260905142606 | 25 | 180 | 1.6 | 3.2 | 0.00 | 0.03 | 0.03 | 94 | 1020.5 |
| 20260905141705 | 25 | 180 | 3.2 | 3.2 | 0.00 | 0.03 | 0.03 | 95 | 1020.4 |
| 20260905140707 | 25 | 180 | 0.0 | 3.2 | 0.00 | 0.03 | 0.03 | 96 | 1020.7 |
| 20260905135706 | 24 | 165 | 1.6 | 3.2 | 0.00 | 0.03 | 0.03 | 97 | 1020.8 |
| 20260905134805 | 23 | 180 | 0.0 | 0.0 | 0.00 | 0.03 | 0.03 | 97 | 1020.8 |
| 20260905133805 | 23 | 180 | 1.6 | 3.2 | 0.00 | 0.03 | 0.03 | 97 | 1020.9 |
| 20260905132806 | 23 | 180 | 1.6 | 4.8 | 0.00 | 0.03 | 0.03 | 97 | 1021.0 |
| 20260905131806 | 22 | 180 | 3.2 | 4.8 | 0.00 | 0.03 | 0.03 | 97 | 1021.1 |
| 20260905130804 | 21 | 22 | 0.0 | 0.0 | 0.00 | 0.03 | 0.03 | 97 | 1021.0 |
| 20260905130708 | 21 | 22 | 0.0 | 0.0 | 0.00 | 0.03 | 0.03 | 96 | 1021.0 |
| 20260905125805 | 21 | 22 | 0.0 | 0.0 | 0.00 | 0.03 | 0.03 | 97 | 1021.0 |
| 20260905124805 | 21 | 22 | 0.0 | 0.0 | 0.00 | 0.03 | 0.03 | 97 | 1020.9 |
| 20260905123808 | 21 | 22 | 0.0 | 0.0 | 0.00 | 0.03 | 0.03 | 97 | 1020.9 |
| 20260905122808 | 21 | 22 | 0.0 | 0.0 | 0.00 | 0.03 | 0.03 | 96 | 1020.8 |
| 20260905121805 | 21 | 22 | 0.0 | 0.0 | 0.00 | 0.03 | 0.03 | 97 | 1020.8 |
| 20260905120904 | 20 | 22 | 0.0 | 0.0 | 0.00 | 0.03 | 0.03 | 97 | 1020.7 |
| 20260905115906 | 20 | 22 | 0.0 | 0.0 | 0.00 | 0.03 | 0.03 | 97 | 1020.7 |
| 20260905113906 | 19 | 22 | 0.0 | 0.0 | 0.00 | 0.03 | 0.03 | 97 | 1020.5 |
| 20260905113004 | 19 | 22 | 0.0 | 0.0 | 0.00 | 0.03 | 0.03 | 96 | 1020.3 |
| 20260905112006 | 19 | 22 | 0.0 | 0.0 | 0.00 | 0.03 | 0.03 | 95 | 1020.1 |
| 20260905111005 | 19 | 22 | 0.0 | 0.0 | 0.00 | 0.03 | 0.03 | 96 | 1020.0 |
| 20260905104107 | 19 | 22 | 0.0 | 0.0 | 0.00 | 0.03 | 0.03 | 95 | 1019.8 |
| 20260905103106 | 19 | 22 | 0.0 | 0.0 | 0.00 | 0.03 | 0.03 | 96 | 1019.9 |